Weather History for KLRO - September, 2012

Change the Weather History Date:

Thursday, September 13, 2012

  Actual Average (KCHS) Record (KCHS)
Temperature  
Mean Temperature 75 °F 77 °F  
Max Temperature 84 °F 86 °F 93 °F (1963)
Min Temperature 66 °F 68 °F 56 °F (1969)
Degree Days  
Heating Degree Days 0 0  
Month to date heating degree days 0  
Since 1 July heating degree days 0  
Cooling Degree Days 10 12  
Month to date cooling degree days 171  
Year to date cooling degree days 1976  
Growing Degree Days 25 (Base 50)    
Moisture  
Dew Point 66 °F    
Average Humidity 76    
Maximum Humidity 94    
Minimum Humidity 51    
Precipitation  
Precipitation 0.00 in 0.22 in 2.16 in (2007)
Month to date precipitation 2.99  
Year to date precipitation 38.63  
Sea Level Pressure  
Sea Level Pressure 30.22 in    
Wind  
Wind Speed - (North)    
Max Wind Speed -    
Max Gust Speed -    
Visibility 10 miles    
Events      
T = Trace of Precipitation, MM = Missing Value Source: NWS Daily Summary

Daily Weather History Graph

Daily Weather History Graph

Search for Another Location

Airport or City:

Trip Planner

Search our weather history database for the weather conditions in past years. The results will help you decide how hot, cold, wet, or windy it might be!

Date:

Astronomy

Sep. 13, 2012 Rise Set
Actual Time 7:01 AM EDT 7:27 PM EDT
Civil Twilight 6:36 AM EDT 7:52 PM EDT
Nautical Twilight 6:07 AM EDT 8:21 PM EDT
Astronomical Twilight 5:38 AM EDT 8:50 PM EDT
Moon 4:25 AM EDT (9/13) 5:45 PM EDT (9/13)
Length of Visible Light 13h 15m
Length of Day
12h 25m
Waning Crescent, 7% of the Moon is Illuminated
Sep 13
Waning Crescent
Sep 15
New
Sep 22
First Quarter
Sep 29
Full
Oct 8
Last Quarter

Hourly Weather History & Observations

Time (EDT) Temp. Heat Index Dew Point Humidity Pressure Visibility Wind Dir Wind Speed Gust Speed Precip Events Conditions
12:15 AM 69.8 °F - 64.4 °F 83% 30.24 in 10.0 mi North - - N/A   Clear
12:35 AM 68.0 °F - 64.4 °F 88% 30.24 in 10.0 mi North - - N/A   Clear
12:55 AM 68.0 °F - 64.4 °F 88% 30.24 in 10.0 mi North - - N/A   Clear
1:15 AM 68.0 °F - 64.4 °F 88% 30.24 in 10.0 mi North - - N/A   Clear
1:35 AM 68.0 °F - 64.4 °F 88% 30.23 in 10.0 mi North - - N/A   Clear
1:55 AM 66.2 °F - 64.4 °F 94% 30.23 in 10.0 mi North - - N/A   Clear
2:15 AM 66.2 °F - 64.4 °F 94% 30.23 in 10.0 mi North - - N/A   Clear
2:35 AM 66.2 °F - 62.6 °F 88% 30.23 in 10.0 mi North - - N/A   Partly Cloudy
2:55 AM 66.2 °F - 64.4 °F 94% 30.22 in 10.0 mi North - - N/A   Scattered Clouds
3:15 AM 66.2 °F - 64.4 °F 94% 30.22 in 10.0 mi North - - N/A   Scattered Clouds
3:35 AM 66.2 °F - 64.4 °F 94% 30.22 in 10.0 mi North - - N/A   Mostly Cloudy
3:55 AM 68.0 °F - 64.4 °F 88% 30.22 in 10.0 mi North - - N/A   Mostly Cloudy
4:15 AM 68.0 °F - 64.4 °F 88% 30.22 in 10.0 mi North - - N/A   Scattered Clouds
4:35 AM 68.0 °F - 64.4 °F 88% 30.21 in 10.0 mi North - - N/A   Scattered Clouds
4:55 AM 68.0 °F - 64.4 °F 88% 30.21 in 10.0 mi North - - N/A   Mostly Cloudy
5:15 AM 68.0 °F - 64.4 °F 88% 30.22 in 10.0 mi North - - N/A   Scattered Clouds
5:35 AM 68.0 °F - 64.4 °F 88% 30.21 in 10.0 mi North - - N/A   Scattered Clouds
5:55 AM 68.0 °F - 66.2 °F 94% 30.22 in 10.0 mi North - - N/A   Mostly Cloudy
6:15 AM 69.8 °F - 66.2 °F 88% 30.22 in 10.0 mi North - - N/A   Mostly Cloudy
6:35 AM 69.8 °F - 66.2 °F 88% 30.23 in 10.0 mi North - - N/A   Mostly Cloudy
6:55 AM 69.8 °F - 66.2 °F 88% 30.23 in 10.0 mi North - - N/A   Overcast
7:15 AM 69.8 °F - 66.2 °F 88% 30.24 in 9.0 mi North - - N/A   Mostly Cloudy
7:35 AM 69.8 °F - 66.2 °F 88% 30.24 in 8.0 mi North - - N/A   Mostly Cloudy
7:55 AM 69.8 °F - 66.2 °F 88% 30.25 in 8.0 mi North - - N/A   Mostly Cloudy
8:15 AM 69.8 °F - 66.2 °F 88% 30.25 in 9.0 mi North - - N/A   Mostly Cloudy
8:35 AM 71.6 °F - 66.2 °F 83% 30.25 in 9.0 mi North - - N/A   Partly Cloudy
8:55 AM 71.6 °F - 66.2 °F 83% 30.26 in 9.0 mi North - - N/A   Partly Cloudy
9:15 AM 71.6 °F - 66.2 °F 83% 30.26 in 9.0 mi North - - N/A   Partly Cloudy
9:35 AM 73.4 °F - 66.2 °F 78% 30.26 in 10.0 mi North - - N/A   Partly Cloudy
9:55 AM 75.2 °F - 68.0 °F 78% 30.26 in 10.0 mi North - - N/A   Clear
10:15 AM 77.0 °F - 68.0 °F 74% 30.26 in 10.0 mi North - - N/A   Clear
10:35 AM 78.8 °F - 69.8 °F 74% 30.26 in 8.0 mi North - - N/A   Clear
10:55 AM 78.8 °F - 68.0 °F 69% 30.26 in 9.0 mi North - - N/A   Clear
11:15 AM 80.6 °F 83.2 °F 68.0 °F 65% 30.27 in 10.0 mi North - - N/A   Partly Cloudy
11:35 AM 80.6 °F 82.7 °F 66.2 °F 61% 30.26 in 10.0 mi North - - N/A   Clear
11:55 AM 80.6 °F 82.7 °F 66.2 °F 61% 30.26 in 10.0 mi North - - N/A   Partly Cloudy
12:15 PM 80.6 °F 82.7 °F 66.2 °F 61% 30.26 in 10.0 mi North - - N/A   Partly Cloudy
12:35 PM 80.6 °F 82.3 °F 64.4 °F 58% 30.26 in 10.0 mi North - - N/A   Partly Cloudy
12:55 PM 82.4 °F 84.6 °F 66.2 °F 58% 30.25 in 10.0 mi North - - N/A   Partly Cloudy
1:15 PM 82.4 °F 83.9 °F 64.4 °F 54% 30.25 in 10.0 mi North - - N/A   Partly Cloudy
1:35 PM 82.4 °F 83.9 °F 64.4 °F 54% 30.25 in 9.0 mi North - - N/A   Partly Cloudy
1:55 PM 82.4 °F 83.9 °F 64.4 °F 54% 30.24 in 10.0 mi North - - N/A   Partly Cloudy
2:15 PM 82.4 °F 84.6 °F 66.2 °F 58% 30.23 in 10.0 mi North - - N/A   Clear
2:35 PM 82.4 °F 84.6 °F 66.2 °F 58% 30.22 in 10.0 mi North - - N/A   Partly Cloudy
2:55 PM 80.6 °F 82.7 °F 66.2 °F 61% 30.21 in 9.0 mi North - - N/A   Scattered Clouds
3:15 PM 82.4 °F 83.9 °F 64.4 °F 54% 30.21 in 10.0 mi North - - N/A   Partly Cloudy
3:35 PM 84.2 °F 85.6 °F 64.4 °F 51% 30.21 in 10.0 mi North - - N/A   Clear
3:55 PM 82.4 °F 84.6 °F 66.2 °F 58% 30.21 in 10.0 mi North - - N/A   Clear
4:15 PM 82.4 °F 83.9 °F 64.4 °F 54% 30.20 in 10.0 mi North - - N/A   Light Drizzle
4:35 PM 82.4 °F 84.6 °F 66.2 °F 58% 30.19 in 10.0 mi North - - N/A   Clear
4:55 PM 82.4 °F 84.6 °F 66.2 °F 58% 30.19 in 10.0 mi North - - N/A   Clear
5:15 PM 82.4 °F 84.6 °F 66.2 °F 58% 30.19 in 10.0 mi North - - N/A   Clear
5:35 PM 82.4 °F 84.6 °F 66.2 °F 58% 30.19 in 10.0 mi North - - N/A   Clear
5:55 PM 80.6 °F 82.7 °F 66.2 °F 61% 30.19 in 10.0 mi North - - N/A   Scattered Clouds
6:15 PM 80.6 °F 82.7 °F 66.2 °F 61% 30.19 in 10.0 mi North - - N/A   Mostly Cloudy
6:35 PM 78.8 °F - 66.2 °F 65% 30.19 in 10.0 mi North - - N/A   Mostly Cloudy
6:55 PM 78.8 °F - 66.2 °F 65% 30.19 in 10.0 mi North - - N/A   Mostly Cloudy
7:15 PM 77.0 °F - 66.2 °F 69% 30.20 in 10.0 mi North - - N/A   Overcast
7:35 PM 75.2 °F - 66.2 °F 73% 30.20 in 10.0 mi North - - N/A   Scattered Clouds
7:55 PM 75.2 °F - 66.2 °F 73% 30.20 in 10.0 mi North - - N/A   Clear
8:15 PM 73.4 °F - 66.2 °F 78% 30.20 in 10.0 mi North - - N/A   Partly Cloudy
8:35 PM 73.4 °F - 66.2 °F 78% 30.20 in 10.0 mi North - - N/A   Mostly Cloudy
8:55 PM 73.4 °F - 66.2 °F 78% 30.20 in 10.0 mi North - - N/A   Mostly Cloudy
9:15 PM 73.4 °F - 66.2 °F 78% 30.20 in 10.0 mi North - - N/A   Partly Cloudy
9:35 PM 73.4 °F - 66.2 °F 78% 30.20 in 10.0 mi North - - N/A   Clear
9:55 PM 73.4 °F - 66.2 °F 78% 30.21 in 10.0 mi North - - N/A   Clear
10:15 PM 73.4 °F - 66.2 °F 78% 30.21 in 10.0 mi North - - N/A   Clear
10:35 PM 71.6 °F - 66.2 °F 83% 30.21 in 10.0 mi North - - N/A   Clear
10:55 PM 71.6 °F - 66.2 °F 83% 30.21 in 10.0 mi North - - N/A   Partly Cloudy
11:15 PM 71.6 °F - 66.2 °F 83% 30.21 in 10.0 mi North - - N/A   Partly Cloudy
11:35 PM 71.6 °F - 66.2 °F 83% 30.21 in 10.0 mi North - - N/A   Clear
11:55 PM 69.8 °F - 66.2 °F 88% 30.21 in 10.0 mi North - - N/A   Clear